CAPE
2133 2191 2000 2136 2208 2192 2102 2218 2464 2489 2620 3054 3462 3464 3317 3557 3474 3460 3860 4254 4516 4704 5156 5437 5239 4936 4861 4675 4611 4446 4266 3964 3906 3648 3359 3097 3028 3028 2964 2755 2765 2907 2443 2369 2104 1693 1674 1394 1128 948 799 687 428 450 380 130 74 30 32 54 56 78 124
1936 2073 2071 2097 2235 2300 2290 2456 2626 2615 2705 2844 3175 3478 3296 3483 3845 3685 3998 4308 4633 4726 4962 5364 5400 5271 5118 4998 4839 4728 4508 4210 4060 3900 3583 3309 3256 3322 3213 3173 2898 2930 2811 2485 2077 1714 1618 1326 1129 1100 681 536 383 521 292 220 96 46 14 35 20 104 234
1848 1844 2106 2149 2190 2298 2516 2590 2759 2696 2702 2740 2918 3106 3233 3656 3970 3892 3973 4285 4690 4842 4884 5243 5354 5218 5079 5070 4881 4726 4432 4102 4236 4223 3915 3406 3532 3233 3239 3106 2900 2763 2742 2493 2104 1852 1730 1547 1287 955 636 444 318 434 366 272 155 79 27 64 86 86 248
1805 1852 1967 2301 2362 2505 2676 2728 2774 2660 2535 2624 2802 2905 3374 3718 3925 4105 4206 4334 4624 4938 4820 5088 5252 5104 5086 5072 4976 4876 4666 4509 4483 4388 4000 3469 3557 3383 3106 3196 3061 2826 2770 2514 2142 1944 1737 1419 1146 876 591 471 432 357 369 240 164 95 51 86 126 86 144
1504 1763 1851 2163 2425 2632 2746 2787 2880 2836 2545 2420 2768 3293 3437 3662 4007 4056 4136 4165 4152 4652 4741 4878 4856 4983 4952 4909 4894 4885 4895 4707 4495 4438 4025 3553 3562 3425 3129 2914 3104 2818 2724 2670 2374 2125 1719 1286 1128 776 704 608 588 541 458 283 128 172 121 67 73 38 103
1416 1700 1807 1996 2218 2653 2847 2760 2639 2612 2478 2315 2634 3143 3286 3380 3568 3574 3876 4180 4164 4198 4802 4700 4578 4894 4879 4828 4636 4797 4704 4535 4506 4490 4284 4119 3974 3763 3468 3612 3494 3287 2843 2877 2450 2154 1934 1443 858 672 690 704 542 544 496 317 192 186 233 208 199 73 19
1266 1717 1754 1899 2159 2354 2766 2770 2561 2419 2574 2356 2554 3063 3050 2994 3175 3115 3180 3722 3862 4087 4348 4424 4538 4781 5012 4771 4776 4745 4695 4594 4630 4370 4668 4481 4397 4293 4026 3774 3449 3255 3007 2966 2421 2145 1902 1341 832 786 802 628 605 485 434 431 281 191 188 213 172 159 126
1218 1704 1996 2094 2086 2054 2138 2622 2619 2456 2586 2624 2512 2855 2877 2714 2883 2861 2874 2930 3505 3260 3671 3628 4205 4762 4988 4839 4712 4751 4767 4439 4126 4337 4516 4277 4364 4150 3906 3558 3358 3240 3044 2892 2506 2000 1626 1480 1152 1152 938 605 608 574 440 401 396 123 90 82 57 138 174
1491 1963 2132 2040 2006 1834 1908 2162 2572 2622 2760 2923 2846 2902 2967 2862 2669 2758 2743 2655 2916 3111 3155 2814 3480 4339 5007 4827 4669 4594 4722 4561 4484 4300 4070 3934 4029 3772 3552 3494 3354 3170 3065 2644 2179 2215 1724 1749 1446 1426 1314 988 907 1007 738 508 358 188 51 30 112 240 246
1696 2097 2244 1760 1714 1642 1695 1814 2366 2786 2862 3126 3101 3149 3104 3120 3035 2824 2772 2587 2583 2827 2778 2624 2728 4006 4896 4636 4375 4528 4488 4272 3999 3772 3649 3525 3630 3391 3194 3068 3087 2974 2802 2283 1942 1670 1332 1166 1478 1569 1536 1352 1266 1247 1058 614 316 214 58 58 243 346 356
1868 2176 2214 1902 1772 1677 1660 1804 2322 2858 3158 3429 3356 3061 3267 3373 3344 3034 2964 2770 2580 2671 2747 2807 2566 3362 4489 4536 4208 4204 4224 3968 3682 3522 3422 3106 3003 2905 2657 2418 2468 2590 2330 1550 1340 1639 1636 1418 1332 1497 1292 985 881 963 987 578 333 275 131 159 284 358 324
2832 2558 2582 2312 1991 1871 1956 2348 2744 3190 3451 3747 3573 3247 3474 3616 3449 3156 3113 3178 2820 2672 2853 2952 2805 2763 4176 4326 3938 4143 3917 3724 3370 3131 3189 3044 2944 2540 2063 1994 2080 1925 1556 1262 1221 1140 919 987 1028 630 547 476 525 733 723 484 340 312 350 248 298 385 344
2728 2719 2745 2318 2217 2252 2590 2892 3247 3571 3797 3937 3710 3628 3680 3693 3490 3287 3528 3556 3150 3001 3110 3271 3202 3237 3713 4186 3861 4237 3875 3573 3367 3201 2914 2947 2538 2184 1618 1211 1104 1333 1394 1207 1094 717 700 1096 749 552 576 601 588 515 420 384 407 440 584 640 467 348 435
2310 2468 2559 2510 2605 2728 3087 3465 3774 4050 4176 4118 3928 3991 4036 3909 3660 3612 3805 3793 3565 3345 3391 3516 3726 3706 3828 4300 4114 4263 3847 3538 3500 3334 2822 2098 1613 1354 1187 1278 1300 1475 1691 1571 1260 657 685 665 540 599 613 686 598 530 418 430 516 625 832 830 676 511 520
2409 2237 2346 2321 2787 3183 3636 3883 4227 4378 4490 4390 4170 4162 4146 4106 4034 3996 4025 3967 3928 3549 3496 3767 4057 4222 4215 4392 4339 4398 3858 3586 3198 2700 1796 1368 1030 782 877 901 1139 1683 1956 1440 1226 1179 1053 299 112 292 409 440 493 518 530 540 582 714 1014 1149 962 926 760
2372 2243 2038 2226 2633 3108 3591 3846 4290 4655 4740 4621 4204 4260 4179 4273 4308 4162 4286 4214 4143 4014 3703 3855 4253 4462 4450 4431 4419 4290 3750 3469 3056 2174 1962 1720 1647 1320 792 896 1070 784 429 347 385 646 808 718 539 314 415 456 488 646 802 822 814 724 570 735 946 1197 1156
2218 2233 2189 2303 2712 3010 3518 3721 4061 4594 4683 4691 4365 4562 4426 4474 4526 4411 4060 4146 4175 4406 4011 4069 4503 4701 4639 4326 4067 3856 3692 3110 2712 2228 2161 2089 2176 2245 2104 1468 772 304 174 194 219 226 486 462 460 348 294 314 587 768 792 814 802 480 412 520 644 1110 1130
2226 2697 2538 2419 2634 2993 3347 3570 3898 4442 4645 4683 4670 4762 4837 5024 4834 4747 4238 4288 4220 4349 4270 4256 4619 4390 4205 4162 4217 3956 3672 3074 2544 2400 2406 2387 2431 2429 2412 2446 1992 979 618 486 367 360 316 195 345 404 366 379 558 682 861 894 704 418 373 388 367 292 778
2481 2551 2961 3015 3000 3114 3160 3278 3912 4541 4390 4509 4643 4886 4894 5083 4892 4998 4688 4601 4484 4428 4426 4385 4385 4378 4426 4146 4228 3800 3401 2977 2494 2458 2482 2430 2406 2424 2392 2331 1943 1372 972 673 561 660 587 482 565 594 665 593 680 580 512 766 619 305 262 250 220 212 189
2140 2543 3066 3027 3016 3031 3144 3218 3451 3686 3915 4302 4533 4487 4585 4768 4860 4967 4668 4561 4562 4453 4513 4556 4364 4367 4099 4102 3992 3645 3205 2924 2574 2633 2538 2439 2359 2258 2212 2060 1826 1489 1180 986 915 764 568 441 630 698 788 708 745 551 646 1053 797 384 284 210 227 220 332
1908 2395 2607 2767 3100 3043 3155 3011 2929 3456 3682 3687 3742 4000 4257 4450 4636 4751 4530 4656 4483 4472 4596 4538 4476 4185 4261 3647 3740 3457 3292 2648 2658 2599 2478 2297 2180 2124 2044 1962 1734 1426 1223 1131 1052 955 745 541 692 600 702 910 1044 1160 1277 1078 654 400 258 170 201 192 240
1147 1877 2109 2129 2712 2798 3000 2771 3037 3230 3463 3390 3904 4067 3878 3942 3900 3856 4067 4336 4548 4655 4652 4568 4556 4075 4028 3888 3482 3312 2943 2532 2557 2392 2248 2165 2042 1961 1919 1762 1586 1380 1161 1074 994 859 728 618 464 436 589 356 806 735 976 779 472 419 288 158 226 312 452
702 1318 1533 1924 2166 2417 3094 2835 2808 3119 3341 3349 3210 3084 3056 3179 3200 3284 3380 3778 4365 4710 4641 4487 4354 3940 3939 3393 3068 2944 2702 2356 2358 2230 2126 2004 1864 1802 1683 1603 1492 1212 1109 1040 913 851 783 686 613 532 462 468 453 385 530 485 476 358 258 252 235 242 500
981 1627 1530 1722 2247 2981 2883 2685 2542 2514 2300 2612 2784 2749 2515 2512 2888 3405 3624 3884 4458 4453 4422 4538 4233 3708 3234 3043 2791 2494 2412 2342 2214 2200 1933 1652 1803 1630 1598 1579 1366 1334 1378 1317 1002 737 665 715 650 614 570 626 608 430 494 537 551 248 153 148 187 367 1031
762 1061 1970 2333 2711 2406 2244 2110 2288 2480 2745 2970 2613 2668 2772 2932 3393 3783 4044 4420 4386 4578 4698 4565 4193 3757 3433 2992 2457 2326 2215 2165 2241 2249 1788 1867 1728 1688 1498 1571 1495 1378 1272 1096 864 773 733 644 608 604 620 559 552 334 475 533 410 181 118 120 114 238 1217
1254 1318 1781 2148 2066 2231 2762 3040 2886 2554 2986 3058 3397 3555 3505 3750 4229 4272 4416 4478 4420 4553 4302 4251 4034 3848 3326 2908 2628 2281 2020 2001 2065 1774 1765 1891 1892 1719 1618 1403 1332 1173 987 897 851 867 838 831 758 448 383 375 328 492 403 514 1009 606 108 60 61 52 1058
2016 1938 1932 2245 2672 3114 3380 3204 3062 2728 2544 3970 4038 3980 4356 4436 4299 4536 4522 4388 4208 3950 3900 3880 3780 3634 3352 2920 2590 2394 2258 2018 1938 1807 1471 1554 1438 1315 1237 1016 694 492 481 396 395 393 387 443 366 313 411 369 251 150 259 160 122 1329 170 67 50 56 107
2352 2616 2898 3136 3070 2648 2307 2015 2196 2220 3276 3924 3883 4081 4272 4440 4522 4371 4204 3995 3851 3711 3649 3732 3657 3558 3468 3172 2850 2536 2249 2146 2006 1942 1934 1914 1794 1563 954 536 370 452 371 234 248 286 272 201 270 252 212 204 138 125 68 262 1097 1679 649 96 68 34 0
2514 2486 2752 3040 3023 2365 1800 2298 2640 2946 3393 3322 3326 3495 3820 3854 4322 4082 3976 3842 3719 3549 3681 3551 3509 3520 3329 3186 2837 2513 2233 2055 2133 1988 1728 1498 1303 987 498 318 258 142 74 13 6 96 196 242 201 162 135 160 196 144 193 1727 822 551 212 62 3 0 0
1831 1860 1143 826 1003 1450 2714 4098 3988 3444 2870 2592 2820 3178 3110 3658 4166 4052 4146 4138 3883 3438 3210 3263 3472 3444 3209 2808 2642 2152 1946 1934 1772 1557 1277 1248 976 622 392 282 150 101 79 44 69 189 175 29 78 113 172 190 102 833 1708 1604 1325 234 69 9 0 0 64
844 778 752 698 574 875 1172 3167 3544 3542 3584 3739 3792 3631 3928 4152 4410 4597 4660 3831 3128 3086 3286 3477 3454 3189 2866 2643 2371 2088 1917 1812 1576 1151 1080 942 613 422 368 192 204 256 258 224 277 290 229 167 106 210 183 115 171 942 1412 1330 1325 815 44 0 0 0 0
1034 776 820 1684 2167 947 1028 1640 2204 2710 2898 3157 3419 3710 3830 3813 4031 4099 3407 3012 2868 3409 3501 3327 3060 2793 2712 2584 2252 1976 1753 1768 1350 939 804 566 498 603 599 439 377 419 515 371 304 336 254 366 246 357 294 400 762 994 1287 1159 1048 960 634 94 103 30 0
2687 2731 2219 2166 2728 2617 1443 1298 1596 1798 1975 2299 2272 2270 2612 3716 4244 4023 3352 3262 3323 3310 3194 2939 2831 2722 2698 2568 2290 1906 1664 1524 1155 842 722 653 682 659 652 731 625 668 814 619 477 468 450 414 495 607 515 740 962 1209 1180 1012 941 912 756 224 80 1 0
2182 2174 2420 2504 2394 2727 2499 1955 1484 2026 2586 2942 2650 2614 2417 2513 2967 3172 3042 2878 2780 2794 2898 2805 2654 2596 2586 2341 2100 1853 1542 1333 876 812 722 601 538 601 621 740 688 681 659 600 526 557 519 526 487 426 292 434 544 936 1082 994 1105 1124 969 482 262 163 106
2380 2547 2478 2324 2362 2824 2640 2638 2266 2472 2924 3333 3438 3192 3260 3231 2930 2787 2768 2534 2308 2591 2454 2236 2155 2296 2274 1970 1878 1689 1455 1283 882 864 714 588 577 724 570 1208 1054 799 646 1080 934 791 618 460 228 334 238 276 709 1028 1014 711 802 1000 742 1337 520 1446 434
2038 2091 2289 2432 2417 2447 2620 2920 3038 3128 3052 3464 3470 3462 3252 2826 2502 2253 1976 2028 2210 2269 2338 2174 2095 2208 1906 1750 1593 1460 1260 1134 874 843 781 684 744 278 176 476 232 162 230 220 0 0 0 0 605 300 324 153 193 557 196 269 997 812 289 144 18 0 0
1869 1908 1905 2190 2422 2508 2618 2738 3018 3228 3255 3350 3280 3047 2731 2598 2319 2168 1907 2213 2222 2296 2459 2242 2056 1943 1714 1622 1502 1340 1235 1053 964 788 962 856 917 342 2 0 0 0 0 0 0 0 0 0 0 0 0 378 561 55 176 82 240 344 25 0 0 0 0
756 1512 1651 1548 1721 2205 2716 2829 2861 3028 3118 3100 3019 2774 2590 2209 2300 2234 2040 2218 2228 2334 2390 2225 2030 1708 1434 1407 1424 1349 1482 1238 1116 1129 1165 1056 1054 808 420 201 122 0 0 0 0 0 0 0 0 0 0 0 459 10 1 0 0 0 0 0 0 0 0
Wind_Speed
14 15 17 20 22 21 19 16 16 17 18 19 20 21 21 19 16 16 15 16 16 16 17 17 18 17 17 17 18 18 18 17 16 16 16 16 16 17 18 18 18 17 15 16 16 18 20 22 24 23 23 24 24 24 23 22 nan nan nan nan nan nan 23
14 16 18 21 22 21 20 19 18 17 18 19 20 22 21 20 17 14 13 14 15 15 15 16 17 17 17 18 18 19 19 18 16 15 16 16 17 17 18 19 20 20 20 20 20 21 22 24 25 24 24 25 24 25 24 23 nan nan nan nan nan 23 23
11 13 16 19 19 19 21 21 22 21 21 21 23 23 21 20 17 14 12 12 13 14 14 15 16 16 18 18 18 18 18 17 17 17 17 17 18 18 18 20 22 23 24 24 25 26 27 28 29 27 26 24 24 26 25 24 23 nan nan nan nan nan 23
7 9 13 17 20 22 25 26 27 26 25 26 26 25 23 21 18 15 12 11 12 14 14 14 16 17 18 18 16 17 18 19 18 18 18 18 18 18 19 22 24 26 27 28 29 31 33 33 33 30 28 25 24 26 27 26 24 nan nan nan 23 nan 21
7 9 10 15 19 22 23 24 26 26 27 28 27 25 21 19 18 15 13 12 12 14 15 15 15 15 15 16 16 16 18 19 18 18 18 19 20 20 22 25 27 28 30 31 33 35 37 38 37 35 32 30 28 27 27 27 25 25 25 nan nan nan 21
9 10 11 14 19 22 22 23 26 28 29 30 29 25 21 21 17 15 13 12 12 13 14 14 13 14 14 16 16 17 17 17 18 19 19 22 24 24 25 27 28 29 32 34 35 37 40 41 40 39 37 36 33 31 30 28 27 27 28 27 27 nan nan
12 9 10 12 16 20 21 21 24 27 28 28 27 22 21 20 18 13 11 10 10 11 12 12 12 14 15 15 15 17 18 20 22 22 23 26 27 27 28 29 29 30 34 36 36 38 40 41 42 43 42 41 38 36 34 32 30 30 30 30 30 29 27
14 11 10 12 14 17 19 19 21 24 27 27 26 22 21 18 14 12 10 8 9 9 9 9 11 12 13 13 14 17 18 21 24 25 25 27 27 28 31 32 32 34 36 37 37 38 38 39 41 43 44 44 43 42 40 37 35 34 nan nan nan 31 31
15 12 11 13 15 16 18 19 22 24 27 30 28 21 19 17 13 12 11 9 9 9 9 8 8 10 12 13 15 18 20 23 25 25 27 29 28 30 33 33 33 35 36 35 36 38 38 40 43 45 46 48 47 44 44 42 37 35 nan nan 34 32 31
18 16 13 12 14 17 19 20 23 25 27 29 27 20 18 16 14 13 13 13 10 10 9 8 8 10 13 15 17 20 22 22 24 28 29 30 29 30 31 32 32 33 34 35 36 39 40 41 45 46 46 49 49 45 45 42 35 32 nan nan 36 33 31
19 18 16 14 13 14 19 20 23 24 27 30 27 21 18 18 17 17 15 13 11 9 9 9 10 12 15 18 19 19 21 22 25 27 28 28 28 31 34 34 34 35 35 36 37 40 41 39 39 39 39 43 46 42 38 35 30 32 37 40 37 34 32
20 20 18 16 14 15 17 18 21 24 28 30 27 22 19 18 18 17 14 12 10 10 10 11 12 14 17 18 17 18 22 22 24 27 27 26 27 32 36 37 36 37 36 37 40 39 38 38 36 36 35 37 38 34 29 27 27 30 36 37 37 37 35
18 19 18 17 17 16 17 18 21 25 29 30 28 23 20 18 17 15 14 12 11 11 12 13 13 15 17 17 17 19 22 23 25 25 26 31 33 36 40 39 36 38 39 39 41 40 43 45 43 38 31 27 28 31 31 32 33 34 36 37 37 37 38
15 15 16 17 19 20 19 20 23 26 28 29 26 24 21 19 17 16 15 15 14 15 15 16 16 17 17 17 16 18 21 22 23 25 33 44 45 43 45 41 42 44 43 42 41 43 48 48 43 39 35 31 30 32 35 39 41 42 42 42 39 39 40
13 13 16 16 16 21 22 23 24 25 27 26 25 24 22 20 19 18 17 17 17 17 18 19 20 20 20 20 19 20 22 23 27 34 45 46 48 47 46 47 48 46 41 39 44 43 44 45 45 43 41 39 37 37 39 42 42 43 46 47 44 41 39
11 14 14 16 16 18 22 23 25 25 26 25 24 24 23 21 20 20 20 21 21 20 21 22 23 23 23 24 23 24 27 31 35 44 49 50 49 47 44 44 48 49 46 45 45 42 42 43 45 46 43 40 38 37 38 40 41 43 47 47 45 42 39
10 12 13 15 18 18 21 24 25 26 26 25 24 24 23 22 21 21 21 23 24 25 26 26 27 27 27 26 25 26 29 36 43 48 52 51 51 51 49 43 41 42 44 44 44 45 45 44 44 45 45 44 41 40 40 41 40 42 43 46 46 42 38
13 14 14 16 19 21 23 24 25 25 25 25 25 25 25 24 24 25 25 27 27 28 29 29 31 30 27 28 29 34 36 40 47 50 52 51 51 51 50 47 43 40 43 45 47 46 45 43 42 43 45 45 45 44 43 41 41 41 43 45 45 42 37
21 22 21 20 19 20 24 24 24 23 23 24 24 25 26 27 27 28 30 31 31 31 32 32 32 32 31 29 33 39 40 44 49 50 51 52 52 51 51 50 48 46 47 49 51 51 51 46 42 41 41 42 43 42 42 40 42 42 44 44 41 39 36
25 26 23 20 17 20 25 26 26 26 25 26 28 30 31 30 32 33 35 37 37 35 33 33 31 29 28 32 37 40 44 47 50 52 54 54 52 51 52 52 51 51 50 50 51 53 54 51 47 44 42 40 41 40 39 38 42 44 43 41 39 40 37
25 25 23 21 20 22 25 23 23 27 28 29 32 36 37 38 38 39 39 40 39 37 35 33 31 28 30 34 40 44 47 51 53 55 56 54 54 53 52 52 51 51 51 51 52 54 55 54 51 47 43 41 41 40 39 37 42 41 40 39 40 40 36
26 24 22 20 19 24 26 23 21 24 28 33 40 42 42 42 41 40 41 41 40 38 35 34 33 32 35 39 44 47 50 54 56 56 55 53 52 52 52 52 52 52 53 53 53 53 54 53 51 47 44 41 40 39 38 36 40 37 37 39 39 40 34
29 28 25 22 19 22 26 26 25 28 34 38 40 44 46 48 46 45 46 45 42 39 38 39 39 39 42 44 46 48 51 53 56 54 52 51 51 49 50 51 51 51 53 54 54 54 54 53 51 46 42 41 44 42 38 35 37 38 36 37 39 37 33
32 36 33 29 28 31 33 33 32 35 35 38 41 46 50 53 52 49 49 49 47 44 41 41 43 44 46 48 48 49 49 51 52 51 51 51 50 50 51 51 52 54 56 55 54 52 51 52 48 45 42 43 43 42 38 35 38 40 39 40 41 34 28
30 33 36 35 32 31 34 34 34 38 41 40 43 48 51 54 54 51 49 49 49 48 45 43 44 46 47 49 49 50 50 49 51 54 55 55 53 52 52 53 56 57 59 59 56 50 49 50 48 45 41 40 39 40 38 36 40 43 42 40 37 30 22
35 35 36 35 35 37 39 40 41 41 42 44 48 51 54 55 53 52 51 50 50 51 48 45 45 46 47 49 51 51 50 50 53 56 56 57 56 55 55 56 59 60 61 59 54 48 48 50 46 41 39 37 36 36 37 35 37 41 39 nan nan nan 24
39 38 37 37 40 42 43 43 44 46 48 51 52 55 56 55 54 52 51 51 50 50 49 47 46 47 48 49 51 53 52 52 55 58 58 57 57 57 57 57 58 58 57 54 48 45 46 46 41 38 36 33 32 34 35 33 34 37 39 nan nan nan 29
44 44 44 44 43 42 45 48 50 51 52 52 54 55 56 56 56 53 52 51 51 50 50 49 49 49 50 51 52 53 53 55 56 58 59 60 60 59 56 55 54 53 52 49 47 45 43 40 35 34 33 32 34 36 nan 32 29 35 40 nan nan nan nan
50 50 50 48 47 47 48 50 50 50 50 49 51 53 54 55 55 54 51 52 52 51 51 51 52 53 53 53 53 53 54 57 59 59 59 60 60 57 53 52 50 49 nan nan nan nan 37 33 32 33 33 33 34 35 34 35 36 38 41 nan nan nan nan
56 56 55 53 51 49 50 50 49 48 47 47 48 49 50 53 54 54 55 55 52 51 52 55 55 55 55 54 54 55 57 59 59 57 58 59 57 53 50 47 45 42 nan nan nan 34 33 nan nan 33 33 34 36 38 39 39 41 44 nan nan nan nan nan
54 55 55 55 54 51 49 47 47 46 46 46 47 47 48 48 51 55 58 58 54 52 55 57 56 54 55 56 56 57 58 58 56 56 57 56 52 48 44 42 39 36 34 34 34 34 34 35 35 35 34 35 38 40 42 44 44 45 nan nan nan nan nan
56 56 56 57 55 51 48 46 44 44 44 44 44 44 45 45 48 52 54 54 53 54 57 57 55 54 56 55 55 57 57 55 54 53 52 50 46 43 40 39 38 36 36 35 36 36 36 37 37 36 37 38 40 42 44 45 43 42 45 nan 42 nan nan
52 53 53 54 51 48 46 44 42 41 42 42 42 44 46 47 48 49 50 51 53 54 54 54 54 54 54 54 56 56 54 52 50 49 47 45 43 42 40 40 39 39 38 37 37 38 37 38 38 39 40 42 43 44 45 44 42 41 43 43 nan nan nan
50 51 52 52 52 51 48 45 43 42 42 43 42 44 46 48 48 48 49 51 51 51 51 52 53 53 53 56 58 56 52 48 49 47 45 44 44 44 43 42 41 40 40 39 39 39 40 39 40 41 42 43 43 43 43 41 40 40 41 42 43 46 44
51 52 51 52 54 54 51 49 49 47 44 42 40 42 44 47 48 49 51 50 50 49 50 52 53 52 55 57 58 55 49 46 46 45 45 46 46 45 43 41 43 43 42 43 41 40 40 40 42 44 45 44 44 44 41 38 37 38 40 44 43 44 42
51 53 52 51 53 55 54 53 49 44 39 36 36 39 43 46 47 48 49 50 51 51 52 54 53 54 55 56 55 52 48 44 45 45 46 47 48 50 48 47 47 45 42 46 nan nan nan nan 43 43 43 42 46 43 39 39 42 51 52 49 nan nan nan
51 52 52 52 53 55 56 51 41 34 33 34 36 39 42 44 46 46 49 50 51 52 54 54 53 52 54 54 51 50 47 44 45 45 44 46 48 49 nan nan nan nan nan nan nan nan nan nan nan nan nan 43 44 nan 47 nan 52 52 nan nan nan nan nan
52 52 51 50 50 51 50 44 35 31 33 35 36 39 41 44 45 47 49 50 51 53 54 53 50 50 53 52 51 51 46 43 44 44 44 44 45 49 50 50 52 nan nan nan nan nan nan nan nan nan nan nan 44 nan nan nan nan nan nan nan nan nan nan
Wind_Direction
276 289 297 297 304 311 315 317 322 321 324 329 334 336 330 322 316 302 296 297 302 301 301 301 301 301 310 311 316 314 315 320 323 330 332 334 331 330 329 327 326 322 318 314 314 316 315 312 310 308 305 306 307 306 304 302 nan nan nan nan nan nan 282
269 282 301 314 321 321 323 322 325 328 333 336 339 341 337 334 325 318 303 299 301 302 297 297 300 303 306 309 310 317 321 326 329 325 326 326 325 325 327 327 323 319 315 310 308 309 311 311 308 307 303 303 304 303 303 301 nan nan nan nan nan 286 283
295 297 320 335 336 327 325 325 334 339 340 340 342 342 340 334 329 327 310 299 300 297 295 301 305 304 304 308 313 320 324 327 329 330 331 326 327 328 326 325 322 319 317 316 316 316 316 315 312 308 305 304 306 306 304 301 297 nan nan nan nan nan 285
335 335 338 336 335 332 331 334 340 341 340 342 343 344 341 335 325 317 312 304 299 297 307 306 302 304 305 308 311 314 322 328 327 324 328 325 323 324 325 323 321 322 321 322 322 320 317 318 317 313 311 308 308 307 306 303 298 nan nan nan 293 nan 287
329 333 332 326 326 323 326 330 333 335 338 342 342 339 339 332 320 313 315 312 310 311 310 306 297 301 299 302 298 307 319 326 323 320 323 321 320 323 326 326 323 327 326 323 321 318 315 314 314 314 312 309 307 305 305 304 302 299 296 nan nan nan 286
281 304 318 320 315 311 316 325 328 331 334 338 339 337 337 336 327 329 322 316 316 311 300 300 304 301 303 306 309 312 317 321 318 318 319 320 323 327 326 322 321 326 325 323 320 316 314 311 311 311 308 305 305 304 302 302 302 302 299 293 289 nan nan
253 280 295 307 311 310 312 314 319 324 327 329 331 331 335 338 340 336 327 326 325 311 306 310 310 306 304 306 315 318 322 321 320 327 325 322 324 326 324 319 318 319 317 315 317 314 316 316 314 308 304 301 301 302 298 295 295 298 299 295 289 283 278
237 247 273 291 303 308 307 303 305 313 313 316 324 329 337 339 341 344 349 341 320 314 312 321 312 306 305 308 312 319 319 321 322 327 323 321 322 327 326 322 316 313 312 313 312 315 317 319 316 312 307 303 300 299 297 292 292 295 nan nan nan 286 278
235 247 269 289 290 288 295 296 294 300 310 315 321 324 330 333 341 348 356 350 327 328 336 337 321 309 301 305 311 325 323 322 322 321 320 322 323 329 325 320 314 310 311 314 316 316 317 318 317 311 305 300 297 299 299 295 292 295 nan nan 295 289 282
253 267 283 296 287 275 276 283 290 294 305 309 312 317 321 316 321 331 337 344 342 347 344 339 329 314 310 313 325 333 328 326 321 323 326 330 329 328 318 308 306 308 312 315 317 320 321 321 315 307 299 295 296 300 302 300 295 298 nan nan 298 291 287
259 273 283 302 303 284 277 284 294 297 299 303 309 318 314 307 308 315 323 331 337 330 330 326 326 322 317 325 337 338 328 329 329 332 338 338 327 317 302 296 299 302 310 316 314 315 319 318 317 314 311 310 310 308 310 310 306 306 311 308 297 289 286
260 273 284 299 305 304 301 293 291 291 295 297 305 313 312 306 305 308 310 317 315 314 311 318 319 324 320 328 339 335 335 338 343 344 342 329 307 302 301 297 296 298 306 312 309 306 314 321 321 326 331 329 324 324 331 334 328 322 318 313 301 290 284
262 275 283 296 299 296 291 292 299 298 295 295 300 304 306 306 304 303 298 299 302 296 298 302 308 313 316 323 333 333 335 342 347 338 320 298 286 289 292 293 296 297 302 309 306 317 330 329 330 336 339 338 334 334 340 342 340 333 327 320 309 295 287
269 273 275 280 292 298 301 295 291 292 295 296 297 299 298 298 299 298 292 289 289 293 293 289 297 303 305 307 319 323 330 333 327 303 284 281 285 286 280 279 288 295 300 307 318 331 335 332 336 339 341 339 333 327 325 328 331 331 327 322 314 302 291
264 274 277 285 291 293 292 291 292 295 297 296 296 299 301 295 294 291 284 282 283 287 291 288 290 295 299 300 306 305 309 305 299 288 281 288 292 291 294 297 298 303 315 324 330 330 332 335 338 338 339 339 337 332 324 321 323 323 321 317 314 307 296
253 270 276 283 286 286 287 290 287 291 293 294 298 298 298 294 292 290 286 284 283 284 285 285 290 295 299 302 301 294 300 297 295 290 295 297 303 305 308 315 322 328 338 340 335 328 334 337 334 334 334 335 336 334 328 322 317 317 320 316 312 310 301
237 254 263 273 273 272 272 278 282 288 293 294 295 294 291 290 289 287 287 283 282 282 285 289 291 295 297 299 302 302 304 302 295 296 301 307 313 315 318 326 331 332 331 331 335 337 337 334 332 331 330 334 335 336 331 326 319 319 320 322 318 310 304
226 230 239 254 260 261 261 268 279 290 295 294 292 290 286 284 285 286 286 284 284 285 287 290 293 296 300 300 300 300 303 308 304 303 306 308 311 315 318 321 326 326 326 327 331 334 334 334 331 329 330 332 335 336 334 332 324 319 321 325 324 317 312
220 217 226 240 249 250 252 259 267 270 269 273 278 280 280 278 281 283 282 282 282 282 287 294 298 297 297 299 298 298 307 312 310 306 306 309 313 316 319 322 325 329 328 329 330 330 334 334 330 330 331 331 334 335 335 335 329 324 324 325 324 320 311
220 217 218 226 231 243 250 253 256 259 263 266 270 272 272 274 274 275 277 279 281 284 289 297 300 301 299 299 300 306 314 317 315 311 312 314 316 318 321 324 327 328 327 326 325 328 332 331 331 331 332 332 333 332 331 332 324 326 325 325 321 314 308
220 217 216 221 228 242 252 256 254 255 258 264 268 269 270 270 271 273 276 280 284 288 292 297 299 302 306 313 313 317 319 320 318 317 318 317 318 320 323 325 326 325 323 322 324 326 329 329 329 328 330 333 332 330 328 327 321 326 325 321 321 318 308
216 216 214 219 237 246 254 259 258 258 259 261 265 267 268 270 272 275 278 282 287 290 294 297 297 298 304 310 317 319 320 319 318 319 319 320 319 320 322 323 322 322 320 318 318 320 324 325 324 326 329 334 332 330 327 322 321 325 326 329 328 320 306
215 217 213 219 233 243 248 252 257 256 257 261 265 268 269 271 274 277 281 285 289 294 297 299 298 298 301 309 314 317 316 314 313 317 318 319 319 320 320 320 319 320 318 318 318 318 319 322 322 322 326 326 319 322 323 326 327 329 333 336 333 321 308
218 218 220 224 230 241 249 251 251 255 255 258 264 269 272 276 278 281 286 287 291 296 298 300 301 300 303 307 310 311 311 312 312 315 316 316 317 316 314 314 314 315 311 313 315 315 316 318 320 316 318 325 322 322 325 329 326 333 338 337 333 322 305
220 225 229 231 235 244 250 250 249 253 254 257 263 264 269 274 278 282 286 287 291 295 295 296 299 301 302 303 305 305 306 311 312 311 312 312 310 308 309 308 307 306 304 307 307 307 309 314 315 313 315 321 321 323 329 331 330 336 337 336 325 310 297
224 231 235 236 238 242 246 248 249 250 252 256 257 261 266 270 274 279 282 285 290 295 296 294 294 297 298 299 300 301 302 305 309 311 312 310 307 303 304 303 302 303 305 307 306 305 308 311 311 315 320 320 323 326 331 334 328 328 334 nan nan nan 297
227 232 237 241 244 246 246 248 249 251 253 250 255 259 263 268 273 276 280 284 288 290 290 289 289 292 295 297 298 298 300 303 308 310 310 310 308 306 303 300 301 303 306 308 306 306 308 309 309 312 318 320 325 329 331 330 330 322 323 nan nan nan 302
233 236 238 240 245 248 251 252 253 254 253 254 258 262 265 269 273 277 281 284 285 285 284 284 285 287 289 291 293 295 300 305 308 309 307 308 308 306 303 298 301 303 304 304 303 305 304 304 307 312 316 320 323 324 nan 318 297 299 301 nan nan nan nan
237 240 242 244 244 246 251 252 253 255 257 260 264 267 270 274 276 278 280 281 284 284 283 282 282 284 286 289 291 296 302 306 307 306 305 308 310 307 301 299 302 302 nan nan nan nan 301 303 308 312 316 319 319 320 319 310 299 292 298 nan nan nan nan
237 240 244 247 248 248 247 246 249 253 257 260 262 265 269 273 274 276 278 279 279 280 280 280 281 284 287 290 294 299 302 304 304 304 305 308 306 303 299 300 301 300 nan nan nan 298 302 nan nan 313 316 318 318 314 310 305 301 297 nan nan nan nan nan
244 248 248 247 246 247 250 251 253 254 254 255 260 262 266 270 275 278 276 273 272 274 276 278 282 285 289 293 298 301 300 300 301 302 303 303 302 300 300 302 302 300 299 301 301 302 304 307 311 313 313 312 311 310 307 304 305 305 nan nan nan nan nan
239 241 243 242 242 248 253 255 255 255 254 255 257 260 264 271 278 282 281 279 277 276 278 282 285 288 291 295 299 301 300 299 300 301 302 302 300 299 300 301 302 301 302 304 305 306 308 310 311 311 311 309 307 307 305 306 307 309 309 nan 309 nan nan
234 236 238 241 241 245 247 248 251 254 257 259 260 265 268 271 273 276 278 279 280 280 282 285 286 287 289 292 296 298 298 297 298 300 301 300 298 298 299 299 300 301 304 305 307 308 309 310 311 310 309 308 308 306 306 307 309 314 316 315 nan nan nan
233 237 238 240 241 240 240 240 244 249 253 256 261 265 270 273 276 278 279 280 283 285 285 284 285 287 288 292 294 296 295 294 296 298 297 298 297 298 300 301 302 302 303 305 306 308 309 310 310 309 307 308 306 305 305 307 312 314 315 316 316 314 315
232 235 237 240 242 242 240 238 242 246 251 255 260 265 269 273 276 281 282 284 285 287 286 283 286 287 289 291 292 290 289 290 294 295 294 294 295 287 286 291 297 300 301 292 290 294 301 304 309 308 305 303 303 304 304 306 311 314 309 307 305 305 308
236 238 239 240 241 242 242 242 244 248 254 258 262 267 271 275 278 281 283 284 285 287 285 285 285 287 289 290 289 286 286 288 292 292 292 294 292 290 288 280 278 280 287 291 nan nan nan nan 293 289 290 298 298 293 305 311 306 300 299 300 nan nan nan
240 241 242 243 247 249 249 243 239 245 255 260 264 267 270 272 275 278 279 280 283 286 286 285 283 284 286 286 285 283 285 289 292 292 292 293 293 295 nan nan nan nan nan nan nan nan nan nan nan nan nan 286 295 nan 287 nan 300 300 nan nan nan nan nan
242 244 245 247 248 248 248 245 245 251 257 260 265 268 269 271 273 275 277 279 282 283 283 282 281 281 282 282 280 280 285 290 291 294 294 295 295 294 294 293 293 nan nan nan nan nan nan nan nan nan nan nan 289 nan nan nan nan nan nan nan nan nan nan